CAPE
1281 1312 1258 971 781 877 996 878 670 809 611 856 990 1121 1107 1213 1336 1442 1459 1374 1276 1234 1081 972 1063 983 721 601 563 534 529 626 762 842 886 891 1005 1049 1161 1088 1058 999 794 858 700 887 697 901 924 896 842 704 736 513 666 816 654 758 928 1023 878 900 822 674 589 538 488 604 628 709 655 518 433 314 475 396 204 128 234 493 520 630 641 652 831
1167 1040 1096 1010 644 863 963 838 628 626 659 866 960 1002 1074 1241 1364 1337 1263 920 892 935 1017 1010 958 990 913 730 640 546 554 706 831 875 877 1013 1013 889 858 871 755 680 630 707 650 578 629 676 738 867 821 562 818 808 960 775 837 920 956 734 777 626 667 676 655 638 436 479 618 649 487 374 218 124 125 170 243 89 283 416 470 667 588 483 620
873 752 679 714 922 1081 974 750 756 652 757 901 934 1003 1105 1248 1282 1235 1044 1045 1093 1248 1302 1370 1276 1021 770 683 615 579 584 781 731 662 802 750 682 605 597 578 595 686 712 608 480 529 617 588 524 635 626 450 618 569 704 640 785 910 894 816 758 656 760 768 849 689 446 435 550 464 423 365 250 141 87 150 128 0 0 91 330 563 530 524 499
522 682 743 767 971 1216 978 782 904 839 873 950 986 1042 1134 1195 1099 1007 1106 1218 1327 1472 1626 1614 1418 1189 793 510 341 402 331 258 357 411 419 446 475 469 433 404 402 597 654 482 480 509 505 511 537 321 647 521 523 478 658 507 786 509 351 548 428 474 771 563 741 759 547 393 442 367 149 415 320 149 51 63 99 74 32 74 153 318 389 428 420
677 354 546 928 1131 1080 920 785 893 966 904 963 940 978 1068 1071 982 963 1071 1212 1406 1616 1602 1515 972 692 406 75 248 230 12 297 271 208 239 314 314 391 448 417 72 19 4 65 106 38 17 0 6 6 0 102 512 231 266 376 722 548 336 383 686 424 579 643 640 619 568 871 302 15 53 256 288 101 88 47 54 4 66 175 392 167 271 280 420
452 441 670 874 1060 849 745 757 831 897 940 945 833 868 958 902 831 904 1065 1164 1396 1489 1571 1259 508 96 63 12 223 0 0 3 1 0 13 14 0 1 0 2 7 0 0 8 24 23 16 20 0 0 8 2 1 21 16 0 4 67 423 406 609 522 350 382 503 486 739 759 728 751 532 294 196 119 96 37 2 3 14 0 0 113 270 131 35
498 464 692 879 885 824 749 781 866 828 750 700 684 804 852 762 693 745 1013 1096 1136 1294 1604 918 369 124 54 55 14 0 2 6 0 0 0 0 3 0 0 0 0 0 0 0 44 145 27 125 86 4 11 4 103 20 6 5 77 198 278 352 510 539 272 384 273 397 588 504 688 613 481 599 285 253 45 15 5 2 0 0 0 26 102 274 132
492 524 748 848 938 862 799 823 948 924 833 877 844 779 780 771 665 703 821 772 1002 1285 1437 851 385 274 187 98 8 1 75 42 6 0 0 0 0 0 0 0 0 0 0 0 23 23 0 0 0 0 0 2 0 0 0 8 156 210 317 368 498 425 208 235 351 422 296 324 384 479 543 537 382 50 1 0 0 0 0 0 0 0 0 0 0
607 731 858 893 886 892 855 834 868 873 945 1009 896 798 826 779 743 696 736 683 1084 1220 1189 936 552 426 162 47 128 278 102 14 6 2 0 0 0 0 0 1 0 0 0 0 0 0 0 0 0 0 0 2 0 0 0 6 106 89 227 218 294 297 275 374 495 594 337 241 416 344 501 520 429 215 104 0 0 0 0 0 0 0 0 0 0
633 806 954 941 911 937 914 891 914 895 914 976 922 816 742 694 709 719 827 891 1159 1231 1252 996 712 522 166 205 198 31 3 0 0 0 0 0 0 0 0 0 0 0 0 0 0 0 0 0 0 0 0 0 0 0 0 0 0 0 0 5 0 0 0 1 4 0 164 173 370 470 650 531 368 234 164 14 0 0 0 0 0 0 0 0 0
992 1069 979 954 1103 1184 1148 1012 866 904 994 1005 982 811 576 694 787 854 1003 1376 1387 1220 1112 940 909 683 513 334 14 0 0 0 0 0 0 0 0 0 0 0 0 0 0 0 0 0 0 0 0 0 0 0 0 0 0 0 0 0 0 0 0 0 0 0 0 0 0 0 146 460 434 438 447 293 194 0 0 0 0 0 0 0 0 0 0
1471 1415 1278 1283 1252 1276 1259 1181 1030 889 923 1013 1025 904 850 897 964 1115 1392 1570 1366 1080 900 834 728 617 430 63 0 0 0 0 0 1 0 0 0 0 0 0 0 0 0 0 0 0 0 0 0 0 0 0 0 0 0 0 0 0 0 0 0 0 0 0 0 0 0 0 0 0 0 159 245 303 202 4 0 0 0 0 0 0 0 0 0
1454 1441 1429 1360 1420 1386 1272 1142 1046 879 890 956 1004 999 1006 1148 1300 1369 1454 1609 1373 1043 790 727 642 474 493 97 29 5 0 0 0 0 0 0 0 0 0 0 0 0 0 0 0 0 0 0 0 0 0 0 0 0 0 0 0 0 0 0 0 0 0 0 0 0 0 0 0 0 0 0 110 324 57 8 0 0 0 0 0 0 0 0 0
1574 1490 1489 1470 1454 1398 1311 1132 1008 952 868 870 955 1045 1115 1264 1340 1281 1330 1567 1358 960 787 721 591 376 636 327 70 2 0 0 0 0 0 0 0 0 0 0 0 0 0 0 0 0 0 0 0 0 0 0 0 0 0 0 0 0 0 0 0 0 0 0 0 0 0 0 0 0 0 0 0 89 48 69 31 0 0 0 0 0 0 0 0
1454 1515 1486 1503 1424 1385 1364 1235 1096 991 806 727 872 1049 1066 1153 1278 1130 1208 1404 1255 951 706 684 371 406 743 462 15 2 9 0 0 0 0 0 0 0 0 0 0 0 0 0 0 0 0 0 0 0 0 0 0 0 0 0 0 0 0 0 0 0 0 0 0 0 0 0 0 0 0 0 0 0 157 177 119 1 0 0 0 0 0 0 0
1424 1500 1428 1413 1438 1417 1352 1246 1120 1020 881 739 846 1004 1015 1160 1270 1138 1160 1280 1220 891 653 587 360 507 853 429 75 22 20 1 0 1 0 0 0 0 0 0 0 0 0 0 0 0 0 0 0 0 0 0 0 0 0 0 0 0 0 0 0 0 0 0 0 0 0 0 0 0 0 0 0 0 0 7 48 27 0 0 0 0 0 0 0
1208 1394 1250 1316 1382 1425 1344 1274 1195 1060 926 842 910 902 971 1171 1203 1161 1158 1216 1121 771 544 458 604 844 713 223 70 11 15 5 4 5 0 0 0 0 0 0 0 0 0 0 0 0 0 0 0 0 0 0 0 0 0 0 0 0 0 0 0 0 0 0 0 0 0 0 0 0 0 0 0 0 0 0 0 0 0 0 0 0 0 0 0
684 592 1089 956 1193 1273 1280 1258 1166 996 941 994 1087 925 918 1197 1175 1185 1246 1167 1140 738 695 623 807 848 544 297 25 28 48 17 15 0 0 0 0 0 0 0 0 0 0 0 0 0 0 10 0 0 0 0 0 0 0 0 0 0 0 0 0 0 0 0 0 0 0 0 0 0 0 0 0 0 0 0 0 0 0 0 0 0 0 0 0
826 623 553 543 864 1287 1248 1274 1107 833 770 672 849 1010 1166 1369 1160 1296 1173 1118 1096 935 954 906 773 654 634 376 282 403 183 38 11 3 5 2 0 0 0 0 0 0 0 0 0 0 0 0 0 0 0 0 0 0 0 0 0 0 0 0 0 0 0 0 0 0 0 0 0 0 0 0 0 0 0 0 0 0 0 0 0 0 0 0 0
756 649 704 704 639 833 1130 1139 1060 787 703 614 838 1084 1110 1279 1253 1134 1410 1339 1328 1217 1072 910 767 820 794 617 580 452 227 53 10 12 19 16 4 0 0 0 0 0 0 0 0 0 0 0 0 0 0 0 0 0 0 0 0 0 0 0 0 0 0 0 0 0 0 0 0 0 0 0 0 0 0 0 0 0 0 0 0 0 0 0 0
592 697 702 803 843 786 750 792 826 629 562 682 554 512 1154 1227 1179 1149 1433 1324 1287 1183 1070 903 750 779 699 543 469 339 278 67 28 44 79 38 7 2 0 0 0 0 0 0 0 0 0 0 0 0 0 0 0 0 0 1 4 0 0 0 0 0 0 0 0 0 0 0 0 0 0 0 0 0 0 0 0 0 0 0 0 0 0 0 0
354 467 432 517 469 697 744 519 555 544 583 618 678 832 1044 1249 1224 1203 1295 1298 1196 1138 1020 904 814 701 704 615 414 384 354 292 72 83 125 96 26 13 4 0 1 6 2 0 0 0 0 0 0 0 1 13 10 18 21 8 1 4 21 84 2 0 0 0 0 0 0 0 0 0 0 0 0 0 0 0 0 0 0 0 0 0 0 0 0
214 514 482 432 328 415 450 495 575 640 405 482 631 1053 1256 1244 1192 1152 1150 1176 1120 1046 931 922 910 802 772 717 536 399 405 582 465 99 129 164 93 48 24 7 15 16 14 1 0 0 0 0 1 2 7 23 34 71 143 112 21 10 31 8 7 0 0 11 11 0 0 0 0 0 0 0 0 0 0 0 0 0 0 0 0 0 0 0 0
198 146 304 500 556 564 91 451 89 421 389 521 468 562 817 1022 1068 926 1048 1059 1005 685 740 738 829 852 774 791 728 450 380 594 745 632 99 216 152 101 76 32 24 10 32 6 2 5 3 4 4 14 60 80 118 112 162 141 54 46 165 146 167 69 14 6 11 16 7 0 0 0 0 0 0 0 0 0 0 0 0 0 0 0 0 0 0
17 109 351 376 451 515 452 445 388 461 434 312 470 534 273 734 709 601 576 217 218 229 491 479 664 787 732 808 773 493 550 630 676 621 421 168 194 103 67 30 23 17 36 19 4 4 11 16 21 19 25 83 80 47 260 197 228 213 196 156 154 104 84 93 3 9 50 0 0 0 0 0 0 0 0 0 0 0 0 0 0 0 0 0 0
185 0 36 34 14 75 379 268 387 341 377 373 588 615 586 505 571 605 487 285 396 75 62 327 349 322 56 41 591 199 422 684 639 534 370 133 137 126 68 22 14 20 77 27 0 8 7 26 21 0 0 211 288 304 297 216 251 231 238 166 176 48 60 174 176 107 0 0 0 0 0 0 2 6 2 0 0 0 0 0 0 0 0 0 0
0 32 182 308 310 284 254 423 482 519 483 647 559 548 536 539 462 475 486 432 10 19 12 44 62 422 252 341 415 412 468 518 668 355 438 223 96 94 52 39 18 25 19 39 0 27 2 2 0 2 12 178 203 227 236 239 232 226 227 163 40 16 4 10 4 0 0 1 0 2 0 0 2 25 0 0 0 0 0 0 0 0 0 0 0
0 0 4 280 294 215 244 355 654 709 605 531 622 597 575 425 418 404 429 577 490 12 300 358 140 529 669 542 458 328 371 366 585 367 301 318 92 63 0 73 23 6 11 2 2 48 0 5 30 194 100 13 0 0 132 66 129 29 106 111 31 0 2 0 0 0 0 0 2 22 7 1 31 31 7 0 0 0 0 0 0 0 0 0 0
1 0 1 66 69 405 494 482 526 605 656 707 698 697 628 618 579 459 511 526 371 0 0 468 506 501 516 595 548 362 293 367 390 386 259 341 214 94 118 200 124 16 4 2 1 68 196 58 113 94 90 7 0 0 0 164 131 35 3 144 0 0 0 1 12 17 16 0 5 8 9 8 0 280 195 190 176 0 0 0 0 0 0 0 0
0 0 0 0 0 142 191 181 228 384 633 588 555 600 641 556 620 570 529 538 376 149 276 620 619 441 469 483 543 375 0 0 0 298 357 340 350 98 109 144 406 129 110 27 52 46 13 51 152 127 15 0 0 0 0 121 155 76 13 13 0 19 21 2 9 18 8 110 206 23 252 274 308 345 318 310 277 221 192 136 0 0 0 0 0
0 0 111 171 59 92 83 0 0 129 161 365 385 403 318 391 430 600 669 608 268 295 318 576 684 509 398 394 326 412 446 0 0 0 316 18 1 0 0 42 482 306 315 268 61 30 26 18 35 230 220 119 0 0 0 165 244 286 329 1 15 24 22 20 39 3 8 55 26 177 340 376 371 378 358 331 315 303 303 306 235 0 0 0 0
0 0 35 168 180 180 173 0 0 0 0 130 110 72 174 218 216 211 240 384 380 361 339 320 392 422 482 513 394 156 285 0 0 23 139 138 0 0 17 320 805 479 418 364 60 20 2 0 6 1 0 61 0 192 412 310 328 252 143 12 31 68 51 23 74 72 40 124 136 301 354 360 365 295 82 0 101 121 116 105 0 0 0 0 0
0 2 24 172 172 175 154 0 0 0 0 0 0 0 9 75 54 88 103 36 4 166 294 11 26 24 346 442 303 261 22 1 2 0 350 326 368 158 85 640 834 557 473 421 352 31 16 1 1 129 226 14 0 0 13 0 0 224 559 595 533 67 123 23 61 32 11 131 282 388 420 428 332 177 9 0 0 0 0 0 0 0 0 0 0
3 40 11 134 148 150 78 63 8 0 0 0 0 0 0 143 266 141 79 84 40 22 0 0 16 19 11 12 18 179 257 285 314 295 298 358 340 0 462 752 732 637 529 444 374 317 204 284 274 285 296 257 0 0 0 0 0 106 303 150 121 366 257 0 0 0 0 170 367 488 405 262 86 0 0 0 0 0 0 0 0 0 0 0 0
20 49 90 65 40 17 75 99 43 24 8 0 0 0 0 0 253 317 304 149 147 145 9 0 0 0 0 1 35 67 10 1 48 352 330 294 66 348 530 606 583 578 512 517 493 310 246 0 0 238 196 0 0 0 223 0 0 169 0 0 0 0 0 0 0 0 0 0 376 254 0 0 0 0 0 0 0 0 0 0 0 0 0 0 0
25 4 26 13 58 40 35 29 8 20 17 1 0 0 0 0 0 0 0 111 100 27 62 37 12 0 0 0 59 246 235 214 64 307 335 387 396 384 448 507 468 487 471 443 76 319 319 294 0 2 5 5 69 251 250 0 0 0 0 0 0 0 0 0 0 0 0 0 54 87 0 0 0 0 0 0 0 0 0 0 0 0 0 0 0
2 22 23 13 0 1 39 63 30 32 30 28 34 20 6 1 0 0 0 0 0 0 0 0 0 162 226 62 167 206 36 1 184 251 281 359 387 383 437 372 402 463 493 423 416 362 127 23 8 77 0 0 228 315 116 0 1 3 3 1 0 0 0 0 0 0 0 0 0 0 0 0 0 0 0 0 0 0 0 0 0 0 0 0 0
0 0 0 11 6 4 4 0 0 0 20 37 25 5 22 16 7 0 0 0 0 0 0 0 0 0 14 174 92 224 208 237 129 166 262 265 329 290 388 414 432 513 448 450 301 0 235 341 353 0 0 226 354 361 193 0 0 0 0 0 0 0 0 0 0 0 0 0 0 0 0 0 0 0 0 0 0 0 0 0 0 0 0 0 0
0 0 0 0 20 19 14 2 0 3 1 1 0 0 0 0 0 4 2 1 1 0 0 0 0 0 0 0 0 0 75 156 103 275 348 372 374 420 547 614 597 431 288 203 0 0 12 342 380 0 0 367 336 407 375 202 86 0 0 0 0 0 0 0 0 0 0 0 0 0 0 0 0 0 0 0 0 0 0 0 0 0 0 0 0
0 0 0 0 0 0 0 0 0 0 0 0 0 0 0 0 0 1 4 7 8 9 0 0 0 0 0 0 0 0 0 0 25 261 308 353 311 327 430 509 402 244 0 0 0 0 7 247 248 0 0 10 239 107 410 249 263 185 0 0 0 0 0 0 0 0 0 0 0 0 0 0 0 0 0 0 0 0 0 0 0 0 0 0 0
0 0 0 0 0 0 0 0 0 0 0 0 0 0 0 1 3 3 2 0 0 0 0 0 0 0 0 0 0 0 0 0 0 0 0 128 222 189 210 230 291 233 0 0 0 0 0 0 0 0 0 0 0 0 0 0 0 0 0 0 0 0 0 0 0 0 0 0 0 0 0 0 0 0 0 0 0 0 0 0 0 0 0 0 0
0 0 0 0 0 0 0 0 0 0 0 0 0 1 5 6 5 1 0 0 0 0 0 0 0 0 1 2 2 0 1 0 0 0 0 0 0 30 17 0 0 0 0 0 0 0 0 0 0 0 0 0 0 0 0 0 0 0 0 0 0 0 0 0 0 0 0 0 0 0 0 0 0 0 0 0 0 0 0 0 0 0 0 0 0
0 0 0 0 0 0 0 0 0 0 0 0 0 1 1 1 1 3 7 5 2 0 0 0 2 3 1 0 0 1 1 0 0 0 1 2 1 0 0 0 0 0 0 0 0 0 12 0 0 0 0 0 0 0 0 0 0 0 0 0 0 0 0 0 0 0 0 0 0 0 0 0 0 0 0 0 0 0 0 0 0 0 0 0 0
0 0 0 0 0 0 0 0 0 0 0 0 0 0 0 0 0 0 0 0 0 0 0 0 0 0 0 0 0 0 0 0 0 0 0 0 0 0 0 2 0 0 0 0 0 0 0 0 1 0 0 0 0 0 0 0 0 0 0 0 0 0 0 0 0 0 0 0 0 0 0 0 0 0 0 0 0 0 0 0 0 0 0 0 0
0 0 0 0 0 0 0 0 0 0 0 0 0 0 0 0 0 0 0 0 0 0 0 0 0 0 0 0 1 2 2 1 0 0 1 0 0 2 2 0 0 0 0 0 0 0 0 0 0 0 0 0 0 0 0 0 0 0 0 0 0 0 0 0 0 0 0 0 0 0 0 0 0 0 0 0 0 0 0 0 0 0 0 0 0
0 0 0 0 0 0 0 0 0 0 0 0 0 0 0 0 0 0 0 0 0 1 4 3 5 6 6 8 9 9 8 7 9 7 5 2 1 1 8 6 2 0 0 0 0 0 0 0 0 0 0 18 93 29 0 0 0 0 0 0 0 0 0 0 0 0 0 0 0 0 0 0 0 0 0 0 0 0 0 0 0 0 0 0 0
0 0 0 0 0 0 0 0 0 0 0 0 0 0 0 0 0 0 0 0 0 0 0 3 5 10 10 13 18 18 14 5 8 7 2 1 1 2 1 5 3 0 0 0 0 0 0 0 0 0 0 101 163 0 0 0 3 2 1 0 0 0 0 0 0 0 0 0 0 0 0 0 0 0 0 0 0 0 0 0 0 0 0 0 0
0 0 0 0 0 0 0 0 0 0 0 0 0 0 0 0 0 0 0 0 0 0 0 0 0 2 5 14 25 15 21 26 1 5 5 6 2 6 10 10 8 8 5 1 0 0 1 0 0 0 5 0 0 0 0 0 0 0 2 1 0 0 0 0 0 0 0 0 0 0 0 0 0 0 0 0 0 0 0 0 0 0 0 0 0
0 0 0 0 0 0 0 0 0 0 0 0 0 0 0 0 0 0 0 0 0 0 0 0 0 0 2 6 11 12 15 22 19 12 1 0 0 0 3 7 6 2 0 0 1 0 0 1 0 0 0 0 0 0 0 0 0 0 0 0 0 0 1 6 4 2 0 0 0 0 0 0 0 0 0 0 0 0 0 0 0 0 0 0 0
0 0 0 0 0 0 0 0 0 0 0 0 0 0 0 0 0 0 0 0 0 0 0 0 0 0 0 1 3 7 11 9 11 10 8 2 0 0 0 0 0 2 2 2 5 1 0 0 0 0 0 0 0 0 0 0 0 0 0 0 1 0 0 0 0 0 0 0 0 0 0 0 0 0 0 0 0 0 0 0 0 0 0 0 0
0 0 0 0 0 0 0 0 0 0 0 0 0 0 0 0 0 0 0 0 0 0 0 0 0 0 0 0 0 0 0 0 4 13 7 19 8 0 0 0 0 0 2 108 102 0 0 0 0 0 0 0 0 0 0 0 0 0 0 1 0 0 0 0 0 0 0 1 2 1 0 0 0 0 0 0 0 0 0 0 0 0 0 0 0
Wind_Speed
42 40 39 39 41 36 32 33 33 31 29 27 28 28 28 27 28 28 25 25 26 26 25 23 22 18 16 15 15 15 14 13 14 11 13 12 12 14 15 15 15 14 13 12 12 11 9 9 9 9 9 9 9 8 7 8 7 8 7 8 7 7 7 7 5 5 5 6 7 9 13 14 12 10 6 7 11 10 10 9 9 10 8 8 8
42 40 33 33 36 34 32 34 34 34 29 28 28 29 27 26 27 27 25 24 25 26 26 24 21 19 17 17 19 20 19 17 15 14 14 14 14 15 15 15 14 14 13 13 13 13 11 11 10 10 9 9 8 7 7 9 9 9 9 8 6 8 8 8 4 5 6 6 8 10 14 15 13 9 8 10 12 nan 11 10 8 8 7 6 7
41 41 37 34 33 30 31 33 32 31 31 29 28 30 29 27 27 27 25 24 23 23 24 24 20 17 16 17 20 21 20 19 18 17 16 16 15 15 14 13 14 14 14 14 15 14 13 13 11 11 10 9 8 7 7 8 10 11 10 6 7 8 9 8 6 5 6 6 9 12 10 12 11 12 nan 11 12 nan nan nan 9 9 9 7 9
44 38 38 37 35 30 29 32 31 28 27 26 26 29 28 29 28 25 23 21 22 20 21 22 21 18 17 19 19 20 20 20 19 18 18 17 17 15 14 13 13 14 15 15 14 14 14 14 13 12 9 8 9 8 7 7 9 8 8 7 8 9 7 7 6 5 7 11 10 9 9 12 14 14 nan nan nan nan nan nan 11 12 11 9 9
42 37 36 38 36 33 32 30 28 27 26 23 23 25 26 29 28 26 22 20 20 20 21 22 22 21 21 nan 20 20 nan 20 21 19 17 15 15 15 14 14 nan nan nan nan 17 nan nan nan nan nan nan 11 11 10 8 6 7 6 6 6 7 9 8 7 6 7 9 8 11 nan nan 11 11 15 nan nan nan nan nan 12 13 13 12 10 10
40 39 38 36 38 39 36 32 30 29 27 21 18 21 23 24 24 22 20 19 18 18 17 16 17 nan nan nan 20 nan nan nan nan nan nan nan nan nan nan nan nan nan nan nan nan nan nan nan nan nan nan nan nan nan nan nan nan nan 6 6 7 7 9 8 7 8 9 12 11 11 11 12 15 12 nan nan nan nan nan nan nan 11 10 11 nan
37 38 38 38 38 39 37 32 29 28 24 21 18 17 17 19 19 19 19 17 16 14 12 11 15 16 nan nan nan nan nan nan nan nan nan nan nan nan nan nan nan nan nan nan nan 16 nan 13 nan nan nan nan 11 nan nan nan nan 9 8 9 8 9 10 9 10 8 10 12 13 13 14 15 16 15 nan nan nan nan nan nan nan nan 10 11 14
37 37 36 38 37 36 33 28 26 25 23 21 19 17 16 15 15 15 14 14 12 11 12 11 17 18 18 nan nan nan nan nan nan nan nan nan nan nan nan nan nan nan nan nan nan nan nan nan nan nan nan nan nan nan nan nan 11 10 9 8 9 9 10 11 9 8 12 10 13 16 15 17 16 nan nan nan nan nan nan nan nan nan nan nan nan
37 34 33 35 32 28 27 27 24 24 21 19 18 18 16 13 13 12 10 9 10 11 12 12 15 16 15 nan 13 12 15 nan nan nan nan nan nan nan nan nan nan nan nan nan nan nan nan nan nan nan nan nan nan nan nan nan 10 nan 10 11 10 10 9 10 11 10 12 11 14 14 15 17 18 17 17 nan nan nan nan nan nan nan nan nan nan
31 31 29 31 30 26 25 25 23 20 17 15 15 16 16 15 14 13 11 9 9 10 9 10 11 11 12 11 12 nan nan nan nan nan nan nan nan nan nan nan nan nan nan nan nan nan nan nan nan nan nan nan nan nan nan nan nan nan nan nan nan nan nan nan nan nan 12 12 12 14 14 16 18 19 17 nan nan nan nan nan nan nan nan nan nan
30 30 29 31 29 27 26 24 21 19 15 13 13 13 13 13 13 14 12 9 9 10 9 10 10 11 13 14 nan nan nan nan nan nan nan nan nan nan nan nan nan nan nan nan nan nan nan nan nan nan nan nan nan nan nan nan nan nan nan nan nan nan nan nan nan nan nan nan 15 15 16 17 16 17 18 nan nan nan nan nan nan nan nan nan nan
32 32 31 31 29 26 25 24 21 18 14 11 11 12 11 11 11 13 12 11 10 10 9 10 10 11 14 nan nan nan nan nan nan nan nan nan nan nan nan nan nan nan nan nan nan nan nan nan nan nan nan nan nan nan nan nan nan nan nan nan nan nan nan nan nan nan nan nan nan nan nan 16 18 19 16 nan nan nan nan nan nan nan nan nan nan
32 31 29 28 27 26 24 23 21 17 12 11 12 13 12 11 12 13 13 12 10 9 10 10 10 11 12 nan nan nan nan nan nan nan nan nan nan nan nan nan nan nan nan nan nan nan nan nan nan nan nan nan nan nan nan nan nan nan nan nan nan nan nan nan nan nan nan nan nan nan nan nan 17 16 nan nan nan nan nan nan nan nan nan nan nan
29 28 26 24 22 22 23 23 21 17 13 12 12 13 13 12 12 13 13 13 11 10 11 11 10 11 12 14 nan nan nan nan nan nan nan nan nan nan nan nan nan nan nan nan nan nan nan nan nan nan nan nan nan nan nan nan nan nan nan nan nan nan nan nan nan nan nan nan nan nan nan nan nan nan nan nan nan nan nan nan nan nan nan nan nan
26 27 24 21 17 19 23 26 26 22 16 12 13 13 13 14 14 15 15 14 13 12 12 12 11 11 12 13 nan nan nan nan nan nan nan nan nan nan nan nan nan nan nan nan nan nan nan nan nan nan nan nan nan nan nan nan nan nan nan nan nan nan nan nan nan nan nan nan nan nan nan nan nan nan 19 19 17 nan nan nan nan nan nan nan nan
25 26 24 19 13 14 22 24 24 22 16 13 12 13 14 14 14 15 15 16 15 14 13 13 11 11 13 14 nan nan nan nan nan nan nan nan nan nan nan nan nan nan nan nan nan nan nan nan nan nan nan nan nan nan nan nan nan nan nan nan nan nan nan nan nan nan nan nan nan nan nan nan nan nan nan nan nan nan nan nan nan nan nan nan nan
25 26 23 20 18 13 17 21 20 19 16 13 12 14 15 15 15 15 16 16 16 16 15 13 13 13 14 14 nan nan nan nan nan nan nan nan nan nan nan nan nan nan nan nan nan nan nan nan nan nan nan nan nan nan nan nan nan nan nan nan nan nan nan nan nan nan nan nan nan nan nan nan nan nan nan nan nan nan nan nan nan nan nan nan nan
27 25 23 20 21 21 17 21 23 19 17 16 15 16 15 15 15 15 16 16 15 16 16 15 15 16 15 16 nan nan nan nan nan nan nan nan nan nan nan nan nan nan nan nan nan nan nan nan nan nan nan nan nan nan nan nan nan nan nan nan nan nan nan nan nan nan nan nan nan nan nan nan nan nan nan nan nan nan nan nan nan nan nan nan nan
27 27 24 22 23 22 22 24 26 27 22 20 17 15 15 14 16 16 15 14 15 14 14 16 17 17 18 19 19 19 19 nan nan nan nan nan nan nan nan nan nan nan nan nan nan nan nan nan nan nan nan nan nan nan nan nan nan nan nan nan nan nan nan nan nan nan nan nan nan nan nan nan nan nan nan nan nan nan nan nan nan nan nan nan nan
27 28 27 25 22 21 24 26 29 31 27 19 14 17 20 15 15 14 13 13 13 13 14 16 17 19 21 22 21 20 19 nan nan nan nan nan nan nan nan nan nan nan nan nan nan nan nan nan nan nan nan nan nan nan nan nan nan nan nan nan nan nan nan nan nan nan nan nan nan nan nan nan nan nan nan nan nan nan nan nan nan nan nan nan nan
26 26 26 25 25 25 27 28 27 24 23 19 17 19 16 11 14 14 15 15 15 15 16 16 17 19 22 22 23 22 22 nan nan nan nan nan nan nan nan nan nan nan nan nan nan nan nan nan nan nan nan nan nan nan nan nan nan nan nan nan nan nan nan nan nan nan nan nan nan nan nan nan nan nan nan nan nan nan nan nan nan nan nan nan nan
27 26 26 25 26 24 29 28 24 20 20 18 16 11 10 11 11 13 14 15 17 18 19 20 21 21 22 23 24 24 23 23 nan nan 24 nan nan nan nan nan nan nan nan nan nan nan nan nan nan nan nan nan nan nan nan nan nan nan nan nan nan nan nan nan nan nan nan nan nan nan nan nan nan nan nan nan nan nan nan nan nan nan nan nan nan
30 28 25 24 25 28 28 25 20 19 20 18 12 6 9 10 11 12 13 14 16 19 22 25 27 27 26 25 25 25 26 26 26 nan 22 23 nan nan nan nan nan nan nan nan nan nan nan nan nan nan nan nan nan nan 21 23 nan nan nan nan nan nan nan nan nan nan nan nan nan nan nan nan nan nan nan nan nan nan nan nan nan nan nan nan nan
29 27 27 28 29 29 nan 20 nan 15 19 16 11 10 10 11 10 9 10 11 17 21 25 25 24 23 22 23 22 23 25 26 27 26 nan 23 23 26 nan nan nan nan nan nan nan nan nan nan nan nan nan nan 23 21 21 21 nan nan 20 21 20 nan nan nan nan nan nan nan nan nan nan nan nan nan nan nan nan nan nan nan nan nan nan nan nan
nan 35 33 29 27 26 20 24 23 19 17 15 12 13 10 11 10 9 9 14 21 24 21 19 20 18 18 19 19 19 24 26 28 29 29 26 24 25 nan nan nan nan nan nan nan nan nan nan nan nan nan nan nan nan 20 21 22 22 23 23 21 22 nan nan nan nan nan nan nan nan nan nan nan nan nan nan nan nan nan nan nan nan nan nan nan
32 nan nan nan nan nan 25 25 24 23 21 17 16 15 13 14 13 11 12 12 16 nan nan 14 14 15 nan nan 17 20 24 29 31 30 26 28 28 26 nan nan nan nan nan nan nan nan nan nan nan nan nan 25 25 26 24 22 21 23 24 23 22 nan nan 21 20 20 nan nan nan nan nan nan nan nan nan nan nan nan nan nan nan nan nan nan nan
nan nan 22 25 27 26 24 26 25 23 21 21 19 18 16 14 11 8 10 11 nan nan nan nan nan 14 15 14 16 20 25 28 29 24 20 22 nan nan nan nan nan nan nan nan nan nan nan nan nan nan nan 28 27 27 26 25 23 22 20 22 nan nan nan nan nan nan nan nan nan nan nan nan nan nan nan nan nan nan nan nan nan nan nan nan nan
nan nan nan 22 21 23 22 21 25 22 20 20 19 18 17 13 11 10 12 13 15 nan 15 16 16 18 16 16 16 21 23 22 21 19 17 17 nan nan nan nan nan nan nan nan nan nan nan nan nan 30 nan nan nan nan 24 nan 21 nan 24 20 nan nan nan nan nan nan nan nan nan nan nan nan nan nan nan nan nan nan nan nan nan nan nan nan nan
nan nan nan nan nan 19 16 17 22 23 23 21 19 18 18 16 16 15 15 15 14 nan nan 18 20 21 21 21 20 20 20 20 20 19 16 15 13 nan 23 25 27 nan nan nan nan nan 29 nan 29 nan nan nan nan nan nan 23 22 nan nan 19 nan nan nan nan nan nan nan nan nan nan nan nan nan 27 29 27 24 nan nan nan nan nan nan nan nan
nan nan nan nan nan 25 25 22 20 20 21 19 18 20 21 19 17 15 15 14 16 17 16 17 19 19 19 19 20 20 nan nan nan 21 20 19 19 nan 16 19 22 19 20 nan nan nan nan nan 29 28 nan nan nan nan nan 29 26 nan nan nan nan nan nan nan nan nan nan 24 24 nan 24 30 31 31 33 33 32 30 28 27 nan nan nan nan nan
nan nan 31 28 nan nan nan nan nan 21 21 18 19 20 21 22 19 17 15 16 17 19 19 19 21 21 20 20 20 19 20 nan nan nan 19 nan nan nan nan nan 15 16 17 20 nan nan nan nan nan 27 27 28 nan nan nan 30 27 23 23 nan nan nan nan nan nan nan nan nan nan 25 27 29 29 28 30 34 34 34 34 34 35 nan nan nan nan
nan nan nan 26 25 27 27 nan nan nan nan 26 23 nan 22 22 23 22 22 21 20 20 21 21 22 24 23 22 23 22 21 nan nan nan 18 18 nan nan nan 12 14 18 19 19 nan nan nan nan nan nan nan nan nan 25 29 29 27 26 25 nan nan nan nan nan nan nan nan 26 26 27 27 26 27 29 nan nan 35 36 37 38 nan nan nan nan nan
nan nan nan 28 27 28 30 nan nan nan nan nan nan nan nan nan nan nan 25 nan nan 24 26 nan nan nan 26 27 27 27 nan nan nan nan 23 21 18 18 nan 19 18 20 22 22 23 nan nan nan nan 27 26 nan nan nan nan nan nan 29 28 27 30 nan 32 nan nan nan nan 28 28 29 30 31 32 37 nan nan nan nan nan nan nan nan nan nan nan
nan nan nan 30 29 30 nan nan nan nan nan nan nan nan nan 30 27 28 nan nan nan nan nan nan nan nan nan nan nan 29 28 27 27 26 25 22 21 nan 20 21 23 23 25 25 26 28 26 25 26 28 29 28 nan nan nan nan nan 34 33 30 29 32 34 nan nan nan nan 32 31 32 34 35 nan nan nan nan nan nan nan nan nan nan nan nan nan
nan nan nan nan nan nan nan nan nan nan nan nan nan nan nan nan 37 35 29 27 28 29 nan nan nan nan nan nan nan nan nan nan nan 31 29 27 nan 25 26 27 26 28 30 30 27 24 25 nan nan 31 32 nan nan nan 29 nan nan 37 nan nan nan nan nan nan nan nan nan nan 36 38 nan nan nan nan nan nan nan nan nan nan nan nan nan nan nan
nan nan nan nan nan nan nan nan nan nan nan nan nan nan nan nan nan nan nan 38 36 nan nan nan nan nan nan nan nan 32 33 32 nan 35 35 33 33 34 34 31 31 31 31 31 nan 29 29 33 nan nan nan nan nan 31 32 nan nan nan nan nan nan nan nan nan nan nan nan nan nan nan nan nan nan nan nan nan nan nan nan nan nan nan nan nan nan
nan nan nan nan nan nan nan nan nan nan nan nan nan nan nan nan nan nan nan nan nan nan nan nan nan 28 30 nan 31 32 nan nan 32 35 37 37 36 35 34 36 37 35 35 36 36 34 34 nan nan nan nan nan 36 34 36 nan nan nan nan nan nan nan nan nan nan nan nan nan nan nan nan nan nan nan nan nan nan nan nan nan nan nan nan nan nan
nan nan nan nan nan nan nan nan nan nan nan nan nan nan nan nan nan nan nan nan nan nan nan nan nan nan nan 34 nan 33 33 30 30 33 35 36 35 35 36 38 40 39 39 40 40 nan 38 38 39 nan nan 43 40 40 40 nan nan nan nan nan nan nan nan nan nan nan nan nan nan nan nan nan nan nan nan nan nan nan nan nan nan nan nan nan nan
nan nan nan nan nan nan nan nan nan nan nan nan nan nan nan nan nan nan nan nan nan nan nan nan nan nan nan nan nan nan nan 35 27 29 33 35 35 36 37 39 39 38 37 38 nan nan nan 40 41 nan nan 46 44 43 43 44 nan nan nan nan nan nan nan nan nan nan nan nan nan nan nan nan nan nan nan nan nan nan nan nan nan nan nan nan nan
nan nan nan nan nan nan nan nan nan nan nan nan nan nan nan nan nan nan nan nan nan nan nan nan nan nan nan nan nan nan nan nan nan 33 35 37 36 38 38 37 37 36 nan nan nan nan nan 40 43 nan nan nan 47 45 45 45 44 45 nan nan nan nan nan nan nan nan nan nan nan nan nan nan nan nan nan nan nan nan nan nan nan nan nan nan nan
nan nan nan nan nan nan nan nan nan nan nan nan nan nan nan nan nan nan nan nan nan nan nan nan nan nan nan nan nan nan nan nan nan nan nan 41 39 37 36 37 36 35 nan nan nan nan nan nan nan nan nan nan nan nan nan nan nan nan nan nan nan nan nan nan nan nan nan nan nan nan nan nan nan nan nan nan nan nan nan nan nan nan nan nan nan
nan nan nan nan nan nan nan nan nan nan nan nan nan nan nan nan nan nan nan nan nan nan nan nan nan nan nan nan nan nan nan nan nan nan nan nan nan nan nan nan nan nan nan nan nan nan nan nan nan nan nan nan nan nan nan nan nan nan nan nan nan nan nan nan nan nan nan nan nan nan nan nan nan nan nan nan nan nan nan nan nan nan nan nan nan
nan nan nan nan nan nan nan nan nan nan nan nan nan nan nan nan nan nan nan nan nan nan nan nan nan nan nan nan nan nan nan nan nan nan nan nan nan nan nan nan nan nan nan nan nan nan nan nan nan nan nan nan nan nan nan nan nan nan nan nan nan nan nan nan nan nan nan nan nan nan nan nan nan nan nan nan nan nan nan nan nan nan nan nan nan
nan nan nan nan nan nan nan nan nan nan nan nan nan nan nan nan nan nan nan nan nan nan nan nan nan nan nan nan nan nan nan nan nan nan nan nan nan nan nan nan nan nan nan nan nan nan nan nan nan nan nan nan nan nan nan nan nan nan nan nan nan nan nan nan nan nan nan nan nan nan nan nan nan nan nan nan nan nan nan nan nan nan nan nan nan
nan nan nan nan nan nan nan nan nan nan nan nan nan nan nan nan nan nan nan nan nan nan nan nan nan nan nan nan nan nan nan nan nan nan nan nan nan nan nan nan nan nan nan nan nan nan nan nan nan nan nan nan nan nan nan nan nan nan nan nan nan nan nan nan nan nan nan nan nan nan nan nan nan nan nan nan nan nan nan nan nan nan nan nan nan
nan nan nan nan nan nan nan nan nan nan nan nan nan nan nan nan nan nan nan nan nan nan nan nan nan nan nan nan nan nan nan nan nan nan nan nan nan nan nan nan nan nan nan nan nan nan nan nan nan nan nan nan nan nan nan nan nan nan nan nan nan nan nan nan nan nan nan nan nan nan nan nan nan nan nan nan nan nan nan nan nan nan nan nan nan
nan nan nan nan nan nan nan nan nan nan nan nan nan nan nan nan nan nan nan nan nan nan nan nan nan nan nan nan nan nan nan nan nan nan nan nan nan nan nan nan nan nan nan nan nan nan nan nan nan nan nan 47 44 nan nan nan nan nan nan nan nan nan nan nan nan nan nan nan nan nan nan nan nan nan nan nan nan nan nan nan nan nan nan nan nan
nan nan nan nan nan nan nan nan nan nan nan nan nan nan nan nan nan nan nan nan nan nan nan nan nan nan nan nan nan nan nan nan nan nan nan nan nan nan nan nan nan nan nan nan nan nan nan nan nan nan nan nan nan nan nan nan nan nan nan nan nan nan nan nan nan nan nan nan nan nan nan nan nan nan nan nan nan nan nan nan nan nan nan nan nan
nan nan nan nan nan nan nan nan nan nan nan nan nan nan nan nan nan nan nan nan nan nan nan nan nan nan nan nan nan nan nan nan nan nan nan nan nan nan nan nan nan nan nan nan nan nan nan nan nan nan nan nan nan nan nan nan nan nan nan nan nan nan nan nan nan nan nan nan nan nan nan nan nan nan nan nan nan nan nan nan nan nan nan nan nan
nan nan nan nan nan nan nan nan nan nan nan nan nan nan nan nan nan nan nan nan nan nan nan nan nan nan nan nan nan nan nan nan nan nan nan nan nan nan nan nan nan nan nan nan nan nan nan nan nan nan nan nan nan nan nan nan nan nan nan nan nan nan nan nan nan nan nan nan nan nan nan nan nan nan nan nan nan nan nan nan nan nan nan nan nan
nan nan nan nan nan nan nan nan nan nan nan nan nan nan nan nan nan nan nan nan nan nan nan nan nan nan nan nan nan nan nan nan nan nan nan nan nan nan nan nan nan nan nan 61 61 nan nan nan nan nan nan nan nan nan nan nan nan nan nan nan nan nan nan nan nan nan nan nan nan nan nan nan nan nan nan nan nan nan nan nan nan nan nan nan nan
Wind_Direction
254 265 267 265 265 266 271 272 281 283 281 287 292 299 305 307 308 307 303 302 299 298 294 291 290 281 276 289 295 294 292 281 280 278 285 292 293 299 300 305 310 314 311 302 294 290 285 282 282 283 280 278 280 284 278 282 276 263 246 247 254 252 250 256 261 262 258 229 233 259 258 252 255 250 248 268 269 269 272 279 281 281 285 295 296
270 268 261 264 270 275 281 282 285 288 286 293 302 304 307 307 305 305 306 305 304 304 299 293 290 286 290 305 304 303 297 290 286 285 293 294 297 300 303 306 309 313 308 297 290 286 283 279 274 277 274 274 278 284 267 269 275 268 261 250 246 262 259 267 266 247 218 251 261 252 255 256 268 267 239 245 263 nan 270 278 278 285 291 285 279
272 273 277 280 280 284 286 284 285 291 297 300 299 302 306 304 303 305 308 309 305 302 298 294 289 282 285 297 302 298 290 284 281 285 289 295 302 305 306 308 311 311 304 294 293 294 294 293 291 286 284 283 277 272 271 266 272 266 253 257 250 249 260 261 272 257 263 259 259 260 260 268 254 254 nan 234 255 nan nan nan 273 265 264 273 281
285 288 289 290 293 291 281 278 283 291 296 291 298 307 306 304 302 304 306 302 301 297 293 291 277 264 269 285 294 299 296 284 276 277 284 292 302 306 308 312 309 302 296 293 289 291 292 290 287 287 288 289 292 282 270 270 269 282 286 286 278 265 261 256 253 261 271 272 258 269 283 278 277 264 nan nan nan nan nan nan 268 272 274 274 270
287 289 291 294 293 289 283 280 281 287 285 292 302 307 306 306 305 306 301 297 297 292 289 278 264 256 267 nan 283 287 nan 279 272 273 284 291 293 297 309 308 nan nan nan nan 288 nan nan nan nan nan nan 276 277 271 270 279 288 297 296 288 285 285 274 269 252 247 246 255 279 nan nan 265 275 282 nan nan nan nan nan 254 262 269 271 270 272
292 291 295 296 291 284 286 289 290 283 282 288 299 304 307 307 307 307 300 296 300 299 291 269 257 nan nan nan 287 nan nan nan nan nan nan nan nan nan nan nan nan nan nan nan nan nan nan nan nan nan nan nan nan nan nan nan nan nan 276 279 270 280 285 273 259 243 255 253 261 270 275 285 290 297 nan nan nan nan nan nan nan 263 271 275 nan
280 285 290 291 289 290 294 299 293 284 283 288 293 299 308 312 308 310 309 304 307 306 290 265 264 275 nan nan nan nan nan nan nan nan nan nan nan nan nan nan nan nan nan nan nan 295 nan 283 nan nan nan nan 258 nan nan nan nan 242 246 252 258 268 268 266 274 266 250 245 252 256 259 261 281 279 nan nan nan nan nan nan nan nan 276 283 282
285 285 289 291 293 296 302 298 290 286 288 292 293 294 308 321 317 319 312 310 309 304 291 275 281 284 278 nan nan nan nan nan nan nan nan nan nan nan nan nan nan nan nan nan nan nan nan nan nan nan nan nan nan nan nan nan 238 231 240 247 250 262 270 280 277 277 268 251 248 249 251 253 260 nan nan nan nan nan nan nan nan nan nan nan nan
289 289 293 294 291 292 292 290 281 280 287 298 301 297 293 300 319 330 330 333 331 329 307 288 288 289 284 nan 272 264 278 nan nan nan nan nan nan nan nan nan nan nan nan nan nan nan nan nan nan nan nan nan nan nan nan nan 240 nan 240 243 249 249 254 262 264 264 261 262 255 245 249 255 256 260 267 nan nan nan nan nan nan nan nan nan nan
279 287 289 285 284 287 281 273 272 273 278 289 291 290 290 290 307 324 342 355 349 342 322 297 291 291 292 287 285 nan nan nan nan nan nan nan nan nan nan nan nan nan nan nan nan nan nan nan nan nan nan nan nan nan nan nan nan nan nan nan nan nan nan nan nan nan 261 264 264 271 264 262 260 262 264 nan nan nan nan nan nan nan nan nan nan
273 275 274 274 275 277 270 269 267 262 267 277 281 291 295 302 307 316 327 324 324 337 337 310 294 294 296 301 nan nan nan nan nan nan nan nan nan nan nan nan nan nan nan nan nan nan nan nan nan nan nan nan nan nan nan nan nan nan nan nan nan nan nan nan nan nan nan nan 260 275 282 282 283 278 286 nan nan nan nan nan nan nan nan nan nan
269 270 273 277 277 272 265 266 268 267 269 278 287 296 306 315 318 315 309 306 309 321 322 309 299 301 305 nan nan nan nan nan nan nan nan nan nan nan nan nan nan nan nan nan nan nan nan nan nan nan nan nan nan nan nan nan nan nan nan nan nan nan nan nan nan nan nan nan nan nan nan 279 279 286 286 nan nan nan nan nan nan nan nan nan nan
267 274 277 281 284 280 271 267 269 276 285 292 298 303 308 312 316 313 310 305 309 308 310 300 290 289 298 nan nan nan nan nan nan nan nan nan nan nan nan nan nan nan nan nan nan nan nan nan nan nan nan nan nan nan nan nan nan nan nan nan nan nan nan nan nan nan nan nan nan nan nan nan 276 280 nan nan nan nan nan nan nan nan nan nan nan
261 269 276 282 291 287 274 271 269 269 275 287 290 295 296 292 293 300 298 296 296 296 297 293 287 281 278 279 nan nan nan nan nan nan nan nan nan nan nan nan nan nan nan nan nan nan nan nan nan nan nan nan nan nan nan nan nan nan nan nan nan nan nan nan nan nan nan nan nan nan nan nan nan nan nan nan nan nan nan nan nan nan nan nan nan
263 262 261 266 286 291 280 270 262 256 264 274 279 282 284 281 283 285 284 285 285 286 281 280 281 276 267 272 nan nan nan nan nan nan nan nan nan nan nan nan nan nan nan nan nan nan nan nan nan nan nan nan nan nan nan nan nan nan nan nan nan nan nan nan nan nan nan nan nan nan nan nan nan nan 297 307 311 nan nan nan nan nan nan nan nan
268 269 265 255 252 284 279 267 262 257 262 267 274 277 282 282 279 279 282 283 280 279 277 278 277 266 258 268 nan nan nan nan nan nan nan nan nan nan nan nan nan nan nan nan nan nan nan nan nan nan nan nan nan nan nan nan nan nan nan nan nan nan nan nan nan nan nan nan nan nan nan nan nan nan nan nan nan nan nan nan nan nan nan nan nan
280 281 284 286 289 285 276 274 271 264 262 271 271 274 275 277 277 276 276 274 276 278 276 274 272 264 260 265 nan nan nan nan nan nan nan nan nan nan nan nan nan nan nan nan nan nan nan nan nan nan nan nan nan nan nan nan nan nan nan nan nan nan nan nan nan nan nan nan nan nan nan nan nan nan nan nan nan nan nan nan nan nan nan nan nan
275 271 269 273 279 281 263 264 272 264 256 252 257 258 263 269 277 273 272 276 275 278 278 275 270 267 266 267 nan nan nan nan nan nan nan nan nan nan nan nan nan nan nan nan nan nan nan nan nan nan nan nan nan nan nan nan nan nan nan nan nan nan nan nan nan nan nan nan nan nan nan nan nan nan nan nan nan nan nan nan nan nan nan nan nan
274 271 273 269 270 267 258 261 266 255 245 239 228 241 258 262 265 270 276 278 279 277 278 273 271 269 267 270 270 268 268 nan nan nan nan nan nan nan nan nan nan nan nan nan nan nan nan nan nan nan nan nan nan nan nan nan nan nan nan nan nan nan nan nan nan nan nan nan nan nan nan nan nan nan nan nan nan nan nan nan nan nan nan nan nan
267 263 261 260 261 262 258 255 255 251 249 255 243 241 241 240 265 262 275 276 272 275 273 271 269 266 264 261 259 260 263 nan nan nan nan nan nan nan nan nan nan nan nan nan nan nan nan nan nan nan nan nan nan nan nan nan nan nan nan nan nan nan nan nan nan nan nan nan nan nan nan nan nan nan nan nan nan nan nan nan nan nan nan nan nan
269 266 265 261 251 249 266 265 260 252 249 240 246 253 253 252 270 291 289 281 275 273 266 260 259 257 259 258 258 257 259 nan nan nan nan nan nan nan nan nan nan nan nan nan nan nan nan nan nan nan nan nan nan nan nan nan nan nan nan nan nan nan nan nan nan nan nan nan nan nan nan nan nan nan nan nan nan nan nan nan nan nan nan nan nan
278 273 266 261 260 261 263 263 262 267 257 246 240 250 272 266 261 262 265 270 273 265 262 252 246 244 248 250 249 248 251 257 nan nan 263 nan nan nan nan nan nan nan nan nan nan nan nan nan nan nan nan nan nan nan nan nan nan nan nan nan nan nan nan nan nan nan nan nan nan nan nan nan nan nan nan nan nan nan nan nan nan nan nan nan nan
280 277 276 272 265 259 255 253 253 264 273 267 258 244 258 249 244 248 263 271 273 268 258 248 242 237 237 240 241 241 243 248 253 nan 262 261 nan nan nan nan nan nan nan nan nan nan nan nan nan nan nan nan nan nan 263 270 nan nan nan nan nan nan nan nan nan nan nan nan nan nan nan nan nan nan nan nan nan nan nan nan nan nan nan nan nan
263 261 257 257 257 255 nan 272 nan 273 274 276 266 252 244 241 239 240 258 267 261 249 247 242 236 241 249 247 244 247 248 250 253 247 nan 259 260 259 nan nan nan nan nan nan nan nan nan nan nan nan nan nan 270 269 268 276 nan nan 269 273 277 nan nan nan nan nan nan nan nan nan nan nan nan nan nan nan nan nan nan nan nan nan nan nan nan
nan 240 251 255 262 270 271 272 277 279 270 265 275 274 268 262 257 264 263 263 259 249 244 252 260 252 251 259 260 257 256 257 256 251 242 242 247 255 nan nan nan nan nan nan nan nan nan nan nan nan nan nan nan nan 270 270 271 276 278 278 278 277 nan nan nan nan nan nan nan nan nan nan nan nan nan nan nan nan nan nan nan nan nan nan nan
224 nan nan nan nan nan 259 260 259 262 269 271 270 266 256 256 250 250 262 268 282 nan nan 277 276 273 nan nan 263 256 255 254 250 250 250 249 235 237 nan nan nan nan nan nan nan nan nan nan nan nan nan 266 259 254 254 262 270 277 283 286 287 nan nan 282 280 274 nan nan nan nan nan nan nan nan nan nan nan nan nan nan nan nan nan nan nan
nan nan 231 237 235 232 242 248 249 253 257 258 262 265 261 257 253 240 238 244 nan nan nan nan nan 265 263 262 264 261 258 260 264 263 267 256 nan nan nan nan nan nan nan nan nan nan nan nan nan nan nan 266 265 263 265 267 270 272 279 285 nan nan nan nan nan nan nan nan nan nan nan nan nan nan nan nan nan nan nan nan nan nan nan nan nan
nan nan nan 242 237 237 231 237 242 243 256 262 255 254 260 257 254 245 234 230 237 nan 258 258 267 264 261 262 261 267 270 267 266 268 265 252 nan nan nan nan nan nan nan nan nan nan nan nan nan 266 nan nan nan nan 278 nan 288 nan 282 281 nan nan nan nan nan nan nan nan nan nan nan nan nan nan nan nan nan nan nan nan nan nan nan nan nan
nan nan nan nan nan 255 251 243 239 236 239 248 253 257 256 248 240 237 234 234 240 nan nan 255 256 261 264 259 253 256 268 271 266 259 254 252 233 nan 227 236 244 nan nan nan nan nan 266 nan 265 nan nan nan nan nan nan 280 282 nan nan 280 nan nan nan nan nan nan nan nan nan nan nan nan nan 275 270 271 269 nan nan nan nan nan nan nan nan
nan nan nan nan nan 245 236 227 229 235 236 242 253 259 260 257 252 242 241 242 250 256 261 254 245 249 254 258 261 268 nan nan nan 270 265 249 231 nan 228 238 245 249 263 nan nan nan nan nan 274 271 nan nan nan nan nan 281 280 nan nan nan nan nan nan nan nan nan nan 278 282 nan 280 280 279 275 272 266 266 270 277 282 nan nan nan nan nan
nan nan 240 244 nan nan nan nan nan 224 230 235 244 254 262 270 270 264 259 263 262 260 263 265 264 263 263 262 266 277 285 nan nan nan 285 nan nan nan nan nan 248 260 272 281 nan nan nan nan nan 278 272 270 nan nan nan 277 279 285 289 nan nan nan nan nan nan nan nan nan nan 281 280 281 277 273 267 267 270 277 280 279 278 nan nan nan nan
nan nan nan 240 239 235 236 nan nan nan nan 227 224 nan 252 259 264 264 264 268 266 263 265 270 276 277 277 277 280 288 290 nan nan nan 275 275 nan nan nan 272 263 272 276 280 nan nan nan nan nan nan nan nan nan 278 282 283 285 287 284 nan nan nan nan nan nan nan nan 280 279 278 278 276 274 273 nan nan 276 281 283 282 nan nan nan nan nan
nan nan nan 243 244 245 248 nan nan nan nan nan nan nan nan nan nan nan 258 nan nan 268 269 nan nan nan 280 280 282 285 nan nan nan nan 268 270 269 277 nan 282 279 277 276 278 282 nan nan nan nan 281 278 nan nan nan nan nan nan 284 278 278 284 nan 285 nan nan nan nan 280 276 275 270 267 269 271 nan nan nan nan nan nan nan nan nan nan nan
nan nan nan 246 247 249 nan nan nan nan nan nan nan nan nan 240 249 256 nan nan nan nan nan nan nan nan nan nan nan 281 283 283 278 277 273 268 261 nan 279 274 271 264 264 269 278 280 275 272 273 276 275 275 nan nan nan nan nan 280 276 279 281 284 282 nan nan nan nan 274 278 276 271 268 nan nan nan nan nan nan nan nan nan nan nan nan nan
nan nan nan nan nan nan nan nan nan nan nan nan nan nan nan nan 243 246 252 260 263 266 nan nan nan nan nan nan nan nan nan nan nan 278 272 268 nan 278 278 271 267 266 265 269 272 272 273 nan nan 272 275 nan nan nan 282 nan nan 280 nan nan nan nan nan nan nan nan nan nan 276 276 nan nan nan nan nan nan nan nan nan nan nan nan nan nan nan
nan nan nan nan nan nan nan nan nan nan nan nan nan nan nan nan nan nan nan 250 252 nan nan nan nan nan nan nan nan 282 282 280 nan 277 275 274 274 276 275 272 268 267 267 272 nan 275 276 277 nan nan nan nan nan 274 274 nan nan nan nan nan nan nan nan nan nan nan nan nan nan nan nan nan nan nan nan nan nan nan nan nan nan nan nan nan nan
nan nan nan nan nan nan nan nan nan nan nan nan nan nan nan nan nan nan nan nan nan nan nan nan nan 263 267 nan 268 270 nan nan 272 271 272 272 274 273 272 274 273 271 271 274 277 275 274 nan nan nan nan nan 274 271 271 nan nan nan nan nan nan nan nan nan nan nan nan nan nan nan nan nan nan nan nan nan nan nan nan nan nan nan nan nan nan
nan nan nan nan nan nan nan nan nan nan nan nan nan nan nan nan nan nan nan nan nan nan nan nan nan nan nan 270 nan 269 263 260 264 266 266 265 266 267 269 270 271 272 273 275 275 nan 274 273 272 nan nan 275 273 272 275 nan nan nan nan nan nan nan nan nan nan nan nan nan nan nan nan nan nan nan nan nan nan nan nan nan nan nan nan nan nan
nan nan nan nan nan nan nan nan nan nan nan nan nan nan nan nan nan nan nan nan nan nan nan nan nan nan nan nan nan nan nan 264 254 264 264 264 264 264 262 261 264 266 269 271 nan nan nan 271 270 nan nan 272 271 271 273 272 nan nan nan nan nan nan nan nan nan nan nan nan nan nan nan nan nan nan nan nan nan nan nan nan nan nan nan nan nan
nan nan nan nan nan nan nan nan nan nan nan nan nan nan nan nan nan nan nan nan nan nan nan nan nan nan nan nan nan nan nan nan nan 259 261 265 265 263 262 262 262 263 nan nan nan nan nan 273 272 nan nan nan 272 269 269 271 268 268 nan nan nan nan nan nan nan nan nan nan nan nan nan nan nan nan nan nan nan nan nan nan nan nan nan nan nan
nan nan nan nan nan nan nan nan nan nan nan nan nan nan nan nan nan nan nan nan nan nan nan nan nan nan nan nan nan nan nan nan nan nan nan 256 257 261 264 266 265 265 nan nan nan nan nan nan nan nan nan nan nan nan nan nan nan nan nan nan nan nan nan nan nan nan nan nan nan nan nan nan nan nan nan nan nan nan nan nan nan nan nan nan nan
nan nan nan nan nan nan nan nan nan nan nan nan nan nan nan nan nan nan nan nan nan nan nan nan nan nan nan nan nan nan nan nan nan nan nan nan nan nan nan nan nan nan nan nan nan nan nan nan nan nan nan nan nan nan nan nan nan nan nan nan nan nan nan nan nan nan nan nan nan nan nan nan nan nan nan nan nan nan nan nan nan nan nan nan nan
nan nan nan nan nan nan nan nan nan nan nan nan nan nan nan nan nan nan nan nan nan nan nan nan nan nan nan nan nan nan nan nan nan nan nan nan nan nan nan nan nan nan nan nan nan nan nan nan nan nan nan nan nan nan nan nan nan nan nan nan nan nan nan nan nan nan nan nan nan nan nan nan nan nan nan nan nan nan nan nan nan nan nan nan nan
nan nan nan nan nan nan nan nan nan nan nan nan nan nan nan nan nan nan nan nan nan nan nan nan nan nan nan nan nan nan nan nan nan nan nan nan nan nan nan nan nan nan nan nan nan nan nan nan nan nan nan nan nan nan nan nan nan nan nan nan nan nan nan nan nan nan nan nan nan nan nan nan nan nan nan nan nan nan nan nan nan nan nan nan nan
nan nan nan nan nan nan nan nan nan nan nan nan nan nan nan nan nan nan nan nan nan nan nan nan nan nan nan nan nan nan nan nan nan nan nan nan nan nan nan nan nan nan nan nan nan nan nan nan nan nan nan nan nan nan nan nan nan nan nan nan nan nan nan nan nan nan nan nan nan nan nan nan nan nan nan nan nan nan nan nan nan nan nan nan nan
nan nan nan nan nan nan nan nan nan nan nan nan nan nan nan nan nan nan nan nan nan nan nan nan nan nan nan nan nan nan nan nan nan nan nan nan nan nan nan nan nan nan nan nan nan nan nan nan nan nan nan nan nan nan nan nan nan nan nan nan nan nan nan nan nan nan nan nan nan nan nan nan nan nan nan nan nan nan nan nan nan nan nan nan nan
nan nan nan nan nan nan nan nan nan nan nan nan nan nan nan nan nan nan nan nan nan nan nan nan nan nan nan nan nan nan nan nan nan nan nan nan nan nan nan nan nan nan nan nan nan nan nan nan nan nan nan 274 272 nan nan nan nan nan nan nan nan nan nan nan nan nan nan nan nan nan nan nan nan nan nan nan nan nan nan nan nan nan nan nan nan
nan nan nan nan nan nan nan nan nan nan nan nan nan nan nan nan nan nan nan nan nan nan nan nan nan nan nan nan nan nan nan nan nan nan nan nan nan nan nan nan nan nan nan nan nan nan nan nan nan nan nan nan nan nan nan nan nan nan nan nan nan nan nan nan nan nan nan nan nan nan nan nan nan nan nan nan nan nan nan nan nan nan nan nan nan
nan nan nan nan nan nan nan nan nan nan nan nan nan nan nan nan nan nan nan nan nan nan nan nan nan nan nan nan nan nan nan nan nan nan nan nan nan nan nan nan nan nan nan nan nan nan nan nan nan nan nan nan nan nan nan nan nan nan nan nan nan nan nan nan nan nan nan nan nan nan nan nan nan nan nan nan nan nan nan nan nan nan nan nan nan
nan nan nan nan nan nan nan nan nan nan nan nan nan nan nan nan nan nan nan nan nan nan nan nan nan nan nan nan nan nan nan nan nan nan nan nan nan nan nan nan nan nan nan nan nan nan nan nan nan nan nan nan nan nan nan nan nan nan nan nan nan nan nan nan nan nan nan nan nan nan nan nan nan nan nan nan nan nan nan nan nan nan nan nan nan
nan nan nan nan nan nan nan nan nan nan nan nan nan nan nan nan nan nan nan nan nan nan nan nan nan nan nan nan nan nan nan nan nan nan nan nan nan nan nan nan nan nan nan 258 257 nan nan nan nan nan nan nan nan nan nan nan nan nan nan nan nan nan nan nan nan nan nan nan nan nan nan nan nan nan nan nan nan nan nan nan nan nan nan nan nan